Weather History for Marietta, GA

Change the Weather History Date:

Monday, January 30, 2012

  Actual Average Record
Temperature  
Mean Temperature 44 °F -  
Max Temperature 61 °F 50 °F 77 °F (2002)
Min Temperature 28 °F 32 °F 6 °F (2014)
Degree Days  
Heating Degree Days 20    
Moisture  
Dew Point 22 °F    
Average Humidity 48    
Maximum Humidity 80    
Minimum Humidity 17    
Precipitation  
Precipitation 0.00 in - - ()
Sea Level Pressure  
Sea Level Pressure 30.40 in    
Wind  
Wind Speed 1 mph (SW)    
Max Wind Speed 9 mph    
Max Gust Speed -    
Visibility 10 miles    
Events      
Averages and records for this station are not official NWS values.
T = Trace of Precipitation, MM = Missing Value Source: NWS Daily Summary

Daily Weather History Graph

Daily Weather History Graph

Search for Another Location

Airport:

Trip Planner

Search our weather history database for the weather conditions in past years. The results will help you decide how hot, cold, wet, or windy it might be!

Date:

Astronomy

Jan. 30, 2012 Rise Set
Actual Time 7:36 AM EST 6:06 PM EST
Civil Twilight 7:10 AM EST 6:32 PM EST
Nautical Twilight 6:40 AM EST 7:02 PM EST
Astronomical Twilight 6:10 AM EST 7:32 PM EST
Moon 11:22 AM EST (1/30) 12:26 AM EST (1/30)
Length of Visible Light 11h 22m
Length of Day
10h 29m
Waxing Crescent, 46% of the Moon is Illuminated
Jan 30
Waxing Crescent
Jan 30
First Quarter
Feb 7
Full
Feb 14
Last Quarter
Feb 21
New

Hourly Weather History & Observations

Time (EST) Temp. Dew Point Humidity Pressure Visibility Wind Dir Wind Speed Gust Speed Precip Events Conditions
12:55 AM 32.9 °F 21.6 °F 63% 30.38 in 10.0 mi Calm Calm - N/A   Clear
1:55 AM 32.5 °F 21.2 °F 63% 30.38 in 10.0 mi Calm Calm - N/A   Clear
2:55 AM 32.0 °F 23.2 °F 70% 30.38 in 10.0 mi Calm Calm - N/A   Clear
3:55 AM 30.9 °F 22.6 °F 71% 30.38 in 10.0 mi Calm Calm - N/A   Clear
4:55 AM 30.0 °F 22.6 °F 74% 30.39 in 10.0 mi Calm Calm - N/A   Clear
5:55 AM 29.1 °F 22.6 °F 77% 30.40 in 10.0 mi Calm Calm - N/A   Clear
6:55 AM 28.8 °F 22.8 °F 78% 30.41 in 10.0 mi Calm Calm - N/A   Clear
7:55 AM 28.4 °F 23.0 °F 80% 30.44 in 10.0 mi Calm Calm - N/A   Clear
8:55 AM 35.8 °F 25.2 °F 65% 30.45 in 10.0 mi Calm Calm - N/A   Clear
9:55 AM 43.3 °F 25.3 °F 49% 30.45 in 10.0 mi Calm Calm - N/A   Clear
10:55 AM 52.5 °F 18.9 °F 27% 30.46 in 10.0 mi WSW 3.5 mph - N/A   Clear
11:55 AM 56.3 °F 17.6 °F 22% 30.45 in 10.0 mi SW 4.6 mph - N/A   Clear
12:55 PM 58.6 °F 16.2 °F 19% 30.43 in 10.0 mi West 5.8 mph - N/A   Clear
1:55 PM 59.5 °F 16.0 °F 18% 30.40 in 10.0 mi Variable 6.9 mph - N/A   Clear
2:55 PM 60.8 °F 17.4 °F 19% 30.38 in 10.0 mi SSW 9.2 mph - N/A   Clear
3:55 PM 61.7 °F 16.7 °F 17% 30.36 in 10.0 mi WSW 9.2 mph - N/A   Clear
4:55 PM 60.8 °F 18.3 °F 19% 30.36 in 10.0 mi WSW 8.1 mph - N/A   Clear
5:55 PM 57.4 °F 19.8 °F 23% 30.36 in 10.0 mi South 5.8 mph - N/A   Clear
6:55 PM 52.3 °F 22.5 °F 31% 30.38 in 10.0 mi Calm Calm - N/A   Clear
7:55 PM 47.1 °F 26.2 °F 44% 30.38 in 10.0 mi Calm Calm - N/A   Clear
8:55 PM 45.1 °F 25.0 °F 45% 30.39 in 10.0 mi Calm Calm - N/A   Clear
9:55 PM 41.9 °F 25.5 °F 52% 30.39 in 10.0 mi Calm Calm - N/A   Clear
10:55 PM 41.2 °F 26.4 °F 56% 30.38 in 10.0 mi Calm Calm - N/A   Clear
11:55 PM 38.5 °F 25.7 °F 60% 30.38 in 10.0 mi Calm Calm - N/A   Clear